Probability
0 0 0 0 0 0 0 0 1 3 5 5 5 4 3 2 2 1 0 0 0 0 0 0 0 0 0 0 0 0 0 0 0 0 0 0 0 0 0 0 0 0 0
0 0 0 0 0 0 0 0 1 3 4 4 3 3 2 1 1 0 0 0 0 0 0 0 0 0 0 0 0 0 0 0 0 0 0 0 0 0 0 0 0 0 0
0 0 0 0 0 0 1 0 1 2 3 3 1 1 1 1 1 1 0 0 0 0 0 0 0 0 0 0 0 0 0 0 0 0 0 0 0 0 0 0 0 0 0
0 0 0 0 0 0 0 0 1 2 2 1 0 0 0 1 2 1 0 0 0 0 0 0 0 0 0 0 0 0 0 0 0 0 0 0 0 0 0 0 0 0 0
0 0 0 0 0 0 0 1 2 2 1 0 0 0 0 1 1 1 0 0 0 0 0 0 0 0 0 0 0 0 0 0 0 0 0 0 0 0 0 0 0 0 0
0 0 0 0 0 1 1 2 3 2 1 0 0 0 0 0 0 0 0 0 0 0 0 0 0 0 0 0 0 0 0 0 0 0 0 0 0 0 0 0 0 0 0
0 0 0 0 1 2 3 3 2 1 0 0 0 0 0 0 0 0 0 0 0 0 0 0 0 0 0 0 0 0 0 0 0 0 0 0 0 0 0 0 0 0 0
0 0 0 0 2 3 3 2 1 0 0 0 0 0 0 0 0 1 0 0 0 0 0 1 1 0 0 0 0 0 0 0 0 0 0 0 0 0 0 0 0 0 0
0 0 0 0 1 2 2 1 0 0 0 0 0 0 0 0 0 0 0 0 0 0 1 2 1 0 0 0 0 0 0 0 0 0 0 0 0 0 0 0 0 0 0
0 0 0 0 1 2 2 1 1 0 0 0 0 0 0 0 0 0 0 0 0 0 1 1 1 0 0 0 0 0 0 0 0 0 0 0 0 0 0 0 0 0 0
0 0 0 0 0 1 1 1 1 0 0 0 0 0 0 0 0 0 0 0 0 0 0 0 0 0 0 0 0 0 0 0 0 0 0 0 0 0 0 0 0 0 0
0 0 0 0 0 0 0 0 0 0 0 0 0 0 0 0 0 0 0 0 1 1 1 0 0 0 0 0 0 0 0 0 0 0 0 0 0 0 0 0 0 0 0
0 0 0 0 0 0 0 0 0 0 0 0 0 0 0 0 0 0 0 0 1 2 1 0 0 0 0 0 0 0 0 0 0 0 0 0 0 0 0 0 0 0 0
0 0 0 0 0 0 0 1 0 0 0 0 0 0 0 0 0 0 0 0 1 2 1 0 0 0 0 0 0 0 0 0 0 0 0 0 0 0 0 0 0 0 0
0 0 0 0 0 0 0 0 0 0 0 0 0 0 0 0 0 0 0 0 0 1 1 0 0 0 0 0 0 0 0 0 0 0 0 0 0 0 0 0 0 0 0
0 0 0 0 0 0 0 0 0 0 0 0 0 0 0 0 0 0 0 0 0 0 0 0 0 0 0 0 0 0 0 0 0 0 0 0 0 0 0 0 0 0 0
0 0 0 0 0 0 0 0 0 0 0 0 0 0 0 0 0 0 0 0 0 0 0 0 0 0 0 0 0 0 0 0 0 0 0 0 0 0 0 0 0 0 0
0 0 0 0 0 0 0 0 0 0 0 0 0 0 0 0 0 0 0 0 0 0 0 0 0 0 0 0 0 0 0 0 0 0 0 0 0 0 0 0 0 0 0
0 0 0 0 0 0 0 0 0 0 0 0 0 0 0 0 0 0 0 0 0 0 0 0 0 0 0 0 0 0 0 0 0 0 0 0 0 0 0 0 0 0 0
0 0 0 0 0 0 0 0 0 0 0 0 0 0 0 0 0 0 0 0 0 0 0 0 0 0 0 0 0 0 0 0 0 0 0 0 0 0 0 0 0 0 0
0 0 0 0 0 0 0 0 0 0 0 0 0 0 0 0 0 0 0 0 0 0 0 0 0 0 0 0 0 0 0 0 0 0 0 0 0 0 0 0 0 0 0
0 0 0 0 0 0 0 0 0 0 0 0 0 0 0 0 0 0 0 0 0 0 0 0 0 0 0 0 0 0 0 0 0 0 0 0 0 0 0 0 0 0 0
0 0 0 0 0 0 0 0 0 0 0 0 0 0 0 0 0 0 0 0 0 0 0 0 0 0 0 0 0 0 0 0 0 0 0 0 0 0 0 0 0 0 0
0 0 0 0 0 0 0 0 0 0 0 0 0 0 0 0 0 0 0 0 0 0 0 0 0 0 0 0 0 0 0 0 0 0 0 0 0 0 0 0 0 0 0
0 0 0 0 0 0 0 0 0 0 0 0 0 0 0 0 0 0 0 0 0 0 0 0 0 0 0 0 0 0 0 0 0 0 0 0 0 0 0 0 0 0 0
0 0 0 0 0 0 0 0 0 0 0 0 0 0 0 0 0 0 0 0 0 0 0 0 0 0 0 0 0 0 0 0 0 0 0 0 0 0 0 0 0 0 0
Wind_Speed
4 3 2 2 2 2 1 1 1 2 2 1 1 1 1 0 0 0 0 1 1 2 2 2 2 2 2 2 2 1 1 0 0 0 1 2 2 2 2 2 2 3 4
2 2 2 2 2 2 2 2 2 2 2 1 1 2 1 1 1 0 0 0 1 1 2 2 2 2 2 1 1 1 1 0 0 1 0 1 2 2 2 2 3 3 3
5 4 3 3 3 3 3 2 2 2 1 1 1 1 2 1 1 1 0 1 0 1 1 2 2 2 2 2 2 2 2 2 1 1 2 2 3 2 2 3 3 3 3
3 3 3 4 4 3 3 2 2 2 2 2 2 2 1 1 1 1 1 1 0 1 1 1 2 2 2 2 2 2 1 2 2 1 1 1 1 1 2 2 2 2 3
4 3 3 4 3 3 3 3 2 2 2 2 3 2 1 1 1 0 0 1 1 1 1 1 1 2 2 2 2 1 1 2 2 2 1 1 1 2 2 3 3 2 2
2 2 1 1 1 1 2 3 3 2 2 2 2 2 2 1 0 1 1 1 1 1 1 1 1 2 2 3 3 3 3 2 2 2 2 2 2 2 2 3 3 3 3
2 1 1 1 1 1 2 2 3 2 1 2 2 2 2 2 2 2 2 1 1 1 2 2 2 2 2 3 3 3 3 3 3 3 3 3 3 2 3 3 3 3 2
2 2 3 2 2 1 1 2 2 2 1 1 1 1 1 2 2 2 2 3 2 3 3 2 3 3 3 3 2 3 3 3 3 4 4 3 3 3 3 3 2 3 3
1 1 1 1 1 2 1 2 2 2 1 1 1 1 1 1 2 2 3 3 3 3 3 3 3 3 3 3 3 3 3 3 4 4 4 3 3 3 3 3 3 3 4
0 0 0 1 0 1 0 1 1 2 1 1 1 1 2 2 2 2 3 3 3 3 3 3 3 3 3 3 3 3 3 4 4 3 4 4 3 3 3 3 3 3 4
2 1 1 1 0 0 0 0 0 1 1 2 2 2 2 2 2 2 3 4 4 4 4 4 4 4 4 3 3 4 4 4 4 4 4 4 3 3 3 3 3 3 3
2 2 1 1 0 0 0 1 1 1 2 2 2 2 2 2 3 3 4 4 4 4 4 4 4 4 4 4 4 4 4 4 5 5 4 5 3 4 3 3 4 4 3
1 1 1 1 1 1 2 2 2 2 2 1 2 2 2 3 3 3 4 4 4 4 4 4 4 5 5 5 5 5 4 5 5 5 5 5 4 5 4 4 4 3 3
2 2 2 2 2 2 2 2 2 2 2 1 2 2 3 3 3 4 4 4 3 3 4 4 5 5 5 5 5 4 4 5 5 5 5 5 6 6 6 5 5 4 3
2 3 3 3 3 2 2 2 2 2 2 2 2 3 3 3 3 3 3 3 3 4 4 4 4 4 4 4 4 4 4 4 4 5 5 6 7 8 7 5 4 4 4
4 4 4 3 3 3 3 2 3 2 2 2 3 3 3 3 3 3 3 3 3 3 3 4 4 4 4 6 7 5 4 4 4 5 5 5 7 8 9 10 8 6 6
4 4 4 4 4 4 3 3 3 2 2 3 3 3 3 3 3 3 3 3 4 3 3 4 4 5 6 7 7 6 4 4 4 5 4 4 5 6 5 7 8 8 9
4 4 3 4 3 3 3 3 2 2 2 3 3 3 3 3 3 3 4 4 3 3 4 4 4 4 5 7 7 6 4 4 4 4 4 5 5 5 4 4 4 5 5
4 4 4 3 3 2 2 2 2 2 2 3 4 3 3 4 3 4 4 4 3 3 3 4 4 4 5 7 7 5 3 3 4 4 4 4 4 6 5 4 4 4 3
3 3 3 2 2 2 1 1 2 2 3 4 4 4 4 4 4 4 4 3 3 3 3 4 4 4 5 6 6 5 3 3 3 3 3 5 4 5 5 3 4 4 3
3 3 2 2 3 2 1 2 2 3 4 3 3 3 3 3 4 4 3 3 3 3 3 4 4 4 5 6 6 5 3 3 3 2 2 3 5 5 5 4 3 4 2
3 3 2 3 3 1 1 2 3 4 3 2 3 3 3 2 2 3 3 3 2 2 3 3 3 3 4 4 5 5 5 3 3 3 2 3 4 4 4 3 2 1 1
3 2 2 3 3 2 1 2 4 3 2 2 3 3 3 2 2 2 2 2 2 2 3 3 3 3 2 3 5 5 4 4 3 2 4 4 3 3 2 2 2 1 1
3 2 2 2 3 3 2 2 3 2 2 2 3 2 2 2 2 2 2 2 2 2 3 3 3 3 2 2 2 2 2 3 2 2 2 3 2 1 1 1 1 1 1
2 2 2 3 3 3 3 3 2 2 2 2 3 2 2 2 2 2 2 2 2 3 3 3 3 3 3 3 4 2 2 1 1 1 0 0 0 1 1 1 0 1 1
2 2 3 3 3 3 3 3 2 2 2 2 2 2 2 2 1 2 3 4 4 5 5 5 4 4 4 4 4 4 3 2 1 1 1 1 1 2 2 1 1 1 1
Wind_Direction
231 201 187 162 143 142 157 173 147 150 134 130 149 146 164 174 104 107 123 153 151 154 148 149 154 160 173 183 176 168 177 241 102 54 324 313 280 241 221 206 195 202 204
212 192 188 164 154 164 171 181 179 156 148 146 158 162 166 179 171 140 41 75 136 166 162 155 167 178 174 165 172 150 154 205 129 128 83 306 314 293 252 221 209 216 210
191 190 183 181 174 175 182 184 185 154 136 111 100 84 76 43 31 26 4 320 260 199 181 176 170 178 176 188 194 183 169 196 218 166 154 180 234 289 278 239 228 221 224
174 170 179 178 183 196 183 185 170 151 132 121 112 117 123 184 238 233 241 280 295 272 220 190 178 180 183 195 207 198 204 182 209 235 230 210 192 212 285 300 272 250 238
175 169 178 183 188 191 182 173 148 135 131 126 133 142 161 223 261 213 230 280 286 277 259 211 196 197 201 205 215 220 219 204 209 203 206 220 257 227 220 269 287 294 271
177 163 164 165 183 188 168 153 143 133 132 131 138 147 165 192 278 279 242 272 293 306 292 255 228 227 224 217 218 214 218 226 226 223 209 202 208 216 215 244 261 265 282
167 147 143 194 175 165 169 157 148 145 133 137 161 171 185 196 217 237 227 252 267 281 273 276 249 247 246 235 223 217 222 222 227 231 232 228 231 224 219 230 256 269 281
172 188 186 178 186 176 176 163 157 160 161 173 203 195 198 201 225 244 241 237 243 243 244 256 259 262 262 261 241 236 236 233 231 242 240 241 240 231 227 219 220 261 275
158 197 198 177 185 189 192 181 174 182 193 199 217 218 222 218 227 246 249 239 250 256 249 247 253 261 259 254 246 246 247 247 241 242 243 246 248 235 234 235 222 221 249
304 285 279 282 285 227 245 155 161 181 205 209 219 246 247 244 243 245 264 259 255 253 249 253 252 256 258 255 247 249 249 247 252 248 243 248 251 248 240 237 237 235 235
241 250 267 266 269 72 21 40 190 228 239 232 230 230 241 246 247 254 265 263 256 250 243 245 246 248 249 250 250 249 246 246 254 254 247 249 249 252 252 248 241 240 236
236 229 237 277 318 320 287 277 265 254 256 252 249 249 250 252 254 256 263 262 259 253 247 245 245 248 251 248 243 250 251 243 245 248 246 249 247 246 249 246 244 240 236
291 300 287 270 264 265 268 270 266 261 263 260 258 260 253 249 254 258 265 263 261 264 258 247 245 246 246 246 245 243 241 246 247 246 245 247 242 246 250 249 242 238 240
274 276 280 278 273 266 266 268 269 266 268 264 266 269 264 258 258 262 261 264 260 258 258 256 251 248 245 244 246 245 242 248 252 249 244 243 241 243 244 246 241 234 230
285 272 270 274 273 272 269 261 262 260 258 254 259 262 264 265 271 277 274 269 260 261 259 261 264 259 247 243 251 244 242 247 255 260 254 249 251 251 248 248 238 228 226
271 269 272 274 265 263 267 270 264 261 248 246 255 266 270 268 273 285 285 272 265 264 261 255 257 259 262 273 268 260 244 248 251 260 260 259 254 258 257 256 249 237 229
270 267 259 250 251 251 250 254 257 257 238 242 256 259 261 263 266 276 281 268 261 265 263 256 254 257 264 271 271 269 255 247 248 252 255 263 264 263 254 255 252 249 248
278 271 265 262 263 256 259 261 253 247 243 252 259 262 265 267 262 264 267 265 261 254 251 255 257 260 265 272 271 270 251 248 249 249 247 251 259 262 262 250 248 248 248
263 261 259 258 257 258 260 259 257 252 253 259 256 261 259 259 257 259 262 263 257 254 253 253 252 257 265 268 269 267 241 247 253 256 255 257 253 265 266 255 248 251 261
284 277 280 276 266 267 257 244 262 259 260 263 261 258 255 247 249 251 258 264 259 259 258 260 253 252 257 266 267 265 237 248 257 261 260 265 273 268 266 240 229 234 237
298 297 291 279 260 248 219 237 262 263 271 280 283 275 258 247 252 252 254 257 261 261 259 260 260 253 257 264 262 255 233 230 245 255 263 267 274 274 273 260 237 238 230
315 313 303 298 291 258 215 250 267 279 296 301 298 291 282 260 262 246 256 258 258 264 268 266 272 265 262 265 262 258 249 248 240 251 261 266 272 275 276 274 262 237 216
300 301 290 300 310 303 248 259 283 299 309 309 303 301 297 280 268 249 249 260 252 256 267 267 270 276 271 273 276 268 258 256 257 252 263 275 273 266 260 262 238 213 202
294 300 303 300 303 303 295 280 289 300 303 301 306 308 302 302 301 286 263 255 250 254 264 265 270 277 273 266 261 248 253 258 266 259 262 272 277 278 253 216 234 241 222
296 299 287 283 290 300 299 304 305 300 298 299 302 305 304 305 316 312 300 285 270 267 266 260 253 256 265 270 274 263 243 227 230 235 232 117 229 243 238 220 217 212 203
290 295 293 292 296 303 305 309 309 298 290 298 305 305 307 306 308 314 325 326 315 315 305 299 290 281 279 279 275 269 259 244 216 176 167 203 226 227 227 226 249 252 225